[Date Prev][Date Next][Thread Prev][Thread Next] - [Date Index][Thread Index][Author Index]

2 Line ISS Keps 8-15



ISS
1 25544U 98067A   02227.14485691  .00025722  00000-0  34443-3 0   463
2 25544  51.6376 117.0583 0017666 140.1212 355.6127 15.57647818213223


----
Via the sarex mailing list at AMSAT.ORG courtesy of AMSAT-NA.
To unsubscribe, send "unsubscribe sarex" to Majordomo@amsat.org



AMSAT Top AMSAT Home